Weather in Morgunovo

Russia / Kaliningrad Oblast     54°49′06″N   20°47′35″E
temp.,
°C
wind,
m/s
gust,
m/s
humid.,
%
clouds,
%
prec.,
mm/h
press.,
hPa
HPBL,
m
17 october, sun
sun1723:00+10wsw61271100 0.1 1016806
02:00+10wsw51175100 0.4 1015643
05:00+10wsw51073100 0.5 1015575
08:00+9wsw51081100 0.9 1015675
11:00+9wsw61186100 0.5 1015957
14:00+9wsw51183100 1.4 1015829
17:00+9wsw51182100 0.7 1015781
20:00+9w51187100 1.3 1015640
18 october, mon
mon1823:00+9wsw498831 0.2 1016333
02:00+7wsw389070 0.4 1016194
05:00+7wnw3688100 0.2 1016116
08:00+7wnw228484 0.3 101820
11:00+11nnw236157 0.4 1019800
14:00+11nnw455287 0.4 10191091
17:00+8nnw37605 0.0 1021177
20:00+6nw35675 0.0 102268
19 october, tue
tue1923:00+5nw2269100 0.0 102418
02:00+4wnw2270100 0.0 102510
05:00+5w2270100 0.0 102611
08:00+5sw2271100 0.0 102616
11:00+9ssw2357100 0.0 1027363
14:00+10s3446100 0.0 1026858
17:00+9sse4750100 0.0 1024284
20:00+8sse51150100 0.0 1022446
20 october, wed
wed2023:00+8s51263100 0.0 1020394
02:00+9s51380100 0.0 1018437
05:00+10ssw61478100 0.2 1014528
08:00+10ssw71591100 1.5 1011646
11:00+11ssw81690100 2.5 1009630
14:00+12ssw71483100 2.7 1007493
17:00+14ssw71579100 0.0 1004475
20:00+15sw81875100 0.0 1003749
21 october, thu
thu2123:00+15sw91785100 1.1 1001922
02:00+15sw91681100 1.1 999918
05:00+14ssw91780100 0.1 996853
08:00+14sw101882100 0.3 9941160
11:00+14wsw1119676 1.4 9951833
14:00+14wsw1119673 1.8 9961585
17:00+13wsw1119675 0.2 9981519
20:00+12wsw9177096 0.2 10001227